sat.trackr.live / text

‹ back to catalog

CORVUS BC2

NORAD 42846 · 2017-042X

PAYLOAD ACTIVE UNKNOWN

§ Identity

Operator
Country
US
Launch date
2017-07-14
Launch site
TYMSC
Launch vehicle
Mass (kg)
RCS (m²)

Purposes: tech_demo

External: N2YO · Heavens-Above · Gunter

§ Orbital elements

Epoch: 2026-09-19T21:47:29.452128Z

Period
95.57 min
Inclination
97.4186°
Eccentricity
0.0013837
Mean motion
15.06791491 rev/d
Perigee alt
536.4 km
Apogee alt
555.6 km
Semi-major
6,924.1 km
B*
1.5752e-4
RAAN
60.6776°
Arg perigee
142.3125°
Mean anomaly
217.9075°
Rev number
50,132

§ Raw data

CORVUS BC21 42846U 17042X   26262.90797977  .00002290  00000+0  15752-3 0  99962 42846  97.4186  60.6776 0013837 142.3125 217.9075 15.06791491501328

JSON: /api/v1/satellites/42846 · /tle

For live sub-satellite position, see the globe view (requires WebGL).

§ Visibility from observer

Set your observer location to see the next 7 days of passes ≥ 10°. The values pass through the URL so the page stays shareable.

No JS? Fill the form by hand. The geolocation button needs JavaScript.

§ Radio — SatNOGS DB

ModeDescriptionDownlinkUplink
FM TLM 401.200 MHz
FM TLM (inactive) 400.175 MHz

2 transmitters · refreshed weekly from db.satnogs.org